QPF
0.00 0.00 0.00 0.00 0.00 0.00 0.00 0.00 0.00 0.00 0.00 0.00 0.00 0.00 0.00 0.00 0.00 0.00 0.00 0.00 0.00 0.00 0.00 0.00 0.00 0.00 0.00 0.00 0.00 0.00 0.00 0.00 0.00 0.00 0.00 0.00 0.00 0.00 0.00 0.00 0.00 0.00 0.00 0.00
0.00 0.00 0.00 0.00 0.00 0.00 0.00 0.00 0.00 0.00 0.00 0.00 0.00 0.00 0.00 0.00 0.00 0.00 0.00 0.00 0.00 0.00 0.00 0.00 0.00 0.00 0.00 0.00 0.00 0.00 0.00 0.00 0.00 0.00 0.00 0.00 0.00 0.00 0.00 0.00 0.00 0.00 0.00 0.00
0.00 0.00 0.00 0.00 0.00 0.00 0.00 0.00 0.00 0.00 0.00 0.00 0.00 0.00 0.00 0.00 0.00 0.00 0.00 0.00 0.00 0.00 0.00 0.00 0.00 0.00 0.00 0.00 0.00 0.00 0.00 0.00 0.00 0.00 0.00 0.00 0.00 0.00 0.00 0.00 0.00 0.00 0.00 0.00
0.00 0.00 0.00 0.00 0.00 0.00 0.00 0.00 0.00 0.00 0.00 0.00 0.00 0.00 0.00 0.00 0.00 0.00 0.00 0.00 0.00 0.00 0.00 0.00 0.00 0.00 0.00 0.00 0.00 0.00 0.00 0.00 0.00 0.00 0.00 0.00 0.00 0.00 0.00 0.00 0.00 0.00 0.00 0.00
0.00 0.00 0.00 0.00 0.00 0.00 0.00 0.00 0.00 0.00 0.00 0.00 0.00 0.00 0.00 0.00 0.00 0.00 0.00 0.00 0.00 0.00 0.00 0.00 0.00 0.00 0.00 0.00 0.00 0.00 0.00 0.00 0.00 0.00 0.00 0.00 0.00 0.00 0.00 0.00 0.00 0.00 0.00 0.00
0.00 0.00 0.00 0.00 0.00 0.00 0.00 0.00 0.00 0.00 0.00 0.00 0.00 0.00 0.00 0.00 0.00 0.00 0.00 0.00 0.00 0.00 0.00 0.00 0.00 0.00 0.00 0.00 0.00 0.00 0.00 0.00 0.00 0.00 0.00 0.00 0.00 0.00 0.00 0.00 0.00 0.00 0.00 0.00
0.00 0.00 0.00 0.00 0.00 0.00 0.00 0.00 0.00 0.00 0.00 0.00 0.00 0.00 0.00 0.00 0.00 0.00 0.00 0.00 0.00 0.00 0.00 0.00 0.00 0.00 0.00 0.00 0.00 0.00 0.00 0.00 0.00 0.00 0.00 0.00 0.00 0.00 0.00 0.00 0.00 0.00 0.00 0.00
0.00 0.00 0.00 0.00 0.00 0.00 0.00 0.00 0.00 0.00 0.00 0.00 0.00 0.00 0.00 0.00 0.00 0.00 0.00 0.00 0.00 0.00 0.00 0.00 0.00 0.00 0.00 0.00 0.00 0.00 0.00 0.00 0.00 0.00 0.00 0.00 0.00 0.00 0.00 0.00 0.00 0.01 0.03 0.04
0.00 0.00 0.00 0.00 0.00 0.00 0.00 0.00 0.00 0.00 0.00 0.00 0.00 0.00 0.00 0.02 0.03 0.00 0.00 0.00 0.00 0.00 0.00 0.00 0.00 0.00 0.00 0.00 0.00 0.00 0.00 0.01 0.01 0.00 0.01 0.00 0.00 0.01 0.01 0.03 0.08 0.13 0.11 0.06
0.00 0.00 0.00 0.00 0.00 0.00 0.00 0.00 0.00 0.00 0.00 0.00 0.00 0.00 0.02 0.01 0.07 0.21 0.12 0.11 0.12 0.10 0.03 0.00 0.00 0.00 0.00 0.00 0.00 0.00 0.00 0.02 0.02 0.00 0.00 0.00 0.00 0.00 0.03 0.03 0.05 0.05 0.08 0.06
0.00 0.00 0.00 0.00 0.00 0.00 0.00 0.00 0.00 0.00 0.00 0.00 0.00 0.00 0.01 0.01 0.05 0.26 0.32 0.15 0.13 0.20 0.16 0.04 0.01 0.00 0.00 0.00 0.00 0.00 0.00 0.01 0.01 0.01 0.01 0.00 0.00 0.00 0.00 0.00 0.00 0.01 0.01 0.02
0.00 0.00 0.00 0.00 0.00 0.00 0.00 0.00 0.00 0.00 0.00 0.00 0.00 0.00 0.00 0.00 0.01 0.13 0.24 0.20 0.16 0.11 0.09 0.07 0.02 0.00 0.00 0.00 0.00 0.00 0.00 0.00 0.00 0.00 0.00 0.00 0.00 0.00 0.00 0.00 0.00 0.00 0.00 0.00
0.00 0.00 0.00 0.00 0.00 0.00 0.00 0.00 0.00 0.00 0.00 0.00 0.00 0.00 0.00 0.01 0.04 0.09 0.23 0.19 0.21 0.19 0.12 0.03 0.00 0.00 0.00 0.00 0.00 0.00 0.00 0.00 0.00 0.00 0.00 0.00 0.00 0.00 0.00 0.00 0.00 0.00 0.00 0.00
0.00 0.00 0.00 0.00 0.00 0.00 0.01 0.00 0.00 0.00 0.01 0.01 0.00 0.00 0.00 0.00 0.03 0.10 0.20 0.19 0.17 0.17 0.12 0.04 0.00 0.00 0.00 0.00 0.00 0.00 0.00 0.00 0.00 0.00 0.00 0.00 0.00 0.00 0.00 0.00 0.00 0.00 0.00 0.00
0.00 0.00 0.00 0.00 0.00 0.00 0.00 0.00 0.02 0.06 0.10 0.07 0.04 0.03 0.01 0.03 0.08 0.13 0.17 0.18 0.18 0.14 0.06 0.01 0.00 0.00 0.00 0.00 0.00 0.00 0.00 0.00 0.00 0.00 0.00 0.00 0.00 0.00 0.00 0.00 0.00 0.00 0.00 0.00
0.00 0.00 0.00 0.00 0.00 0.00 0.00 0.00 0.02 0.04 0.16 0.10 0.09 0.08 0.07 0.09 0.15 0.14 0.10 0.08 0.09 0.07 0.03 0.00 0.00 0.00 0.00 0.00 0.00 0.00 0.00 0.00 0.00 0.00 0.00 0.00 0.00 0.00 0.00 0.00 0.00 0.00 0.00 0.00
0.00 0.00 0.00 0.00 0.00 0.01 0.00 0.00 0.00 0.03 0.15 0.11 0.18 0.11 0.04 0.03 0.05 0.06 0.04 0.02 0.02 0.01 0.00 0.00 0.00 0.00 0.00 0.00 0.00 0.00 0.00 0.00 0.00 0.00 0.00 0.00 0.00 0.00 0.00 0.00 0.00 0.00 0.00 0.00
0.03 0.03 0.03 0.02 0.01 0.00 0.00 0.00 0.00 0.00 0.01 0.05 0.03 0.09 0.08 0.04 0.01 0.00 0.00 0.00 0.00 0.00 0.00 0.00 0.00 0.00 0.00 0.00 0.00 0.00 0.00 0.00 0.00 0.00 0.00 0.00 0.00 0.00 0.00 0.00 0.00 0.00 0.00 0.00
0.10 0.05 0.05 0.03 0.01 0.01 0.00 0.00 0.00 0.00 0.00 0.02 0.01 0.00 0.00 0.02 0.03 0.00 0.00 0.00 0.00 0.00 0.00 0.00 0.00 0.00 0.00 0.00 0.00 0.00 0.00 0.00 0.00 0.00 0.00 0.00 0.00 0.00 0.00 0.01 0.01 0.01 0.00 0.00
0.07 0.03 0.03 0.04 0.01 0.00 0.00 0.00 0.00 0.00 0.00 0.00 0.00 0.01 0.02 0.03 0.06 0.03 0.00 0.00 0.00 0.00 0.00 0.00 0.00 0.00 0.00 0.00 0.00 0.00 0.00 0.00 0.00 0.00 0.00 0.00 0.00 0.00 0.00 0.00 0.00 0.00 0.00 0.00
0.00 0.00 0.00 0.00 0.00 0.00 0.00 0.00 0.00 0.00 0.00 0.00 0.00 0.00 0.01 0.03 0.06 0.06 0.01 0.00 0.00 0.00 0.00 0.00 0.00 0.00 0.00 0.00 0.00 0.00 0.00 0.00 0.00 0.00 0.01 0.00 0.00 0.00 0.00 0.00 0.00 0.00 0.00 0.00
0.00 0.00 0.00 0.00 0.00 0.00 0.00 0.00 0.01 0.02 0.01 0.00 0.00 0.00 0.00 0.01 0.00 0.00 0.00 0.00 0.00 0.00 0.00 0.00 0.00 0.00 0.00 0.00 0.00 0.00 0.00 0.00 0.00 0.00 0.00 0.00 0.00 0.00 0.00 0.00 0.00 0.00 0.00 0.00
0.00 0.00 0.00 0.00 0.00 0.00 0.00 0.00 0.00 0.00 0.00 0.00 0.00 0.00 0.00 0.00 0.00 0.00 0.00 0.00 0.00 0.00 0.00 0.00 0.00 0.00 0.00 0.00 0.00 0.00 0.00 0.00 0.00 0.00 0.00 0.00 0.00 0.00 0.00 0.00 0.00 0.00 0.00 0.00
0.00 0.00 0.00 0.00 0.00 0.00 0.00 0.00 0.00 0.00 0.02 0.01 0.00 0.01 0.01 0.00 0.00 0.00 0.00 0.00 0.00 0.00 0.00 0.00 0.00 0.00 0.00 0.00 0.00 0.00 0.00 0.00 0.00 0.00 0.00 0.00 0.00 0.00 0.00 0.00 0.00 0.00 0.00 0.00
0.00 0.00 0.00 0.00 0.00 0.00 0.00 0.00 0.00 0.00 0.01 0.01 0.02 0.05 0.04 0.00 0.00 0.00 0.00 0.00 0.00 0.00 0.00 0.00 0.00 0.00 0.00 0.00 0.00 0.00 0.00 0.00 0.00 0.00 0.00 0.00 0.00 0.00 0.00 0.00 0.00 0.00 0.00 0.00
0.00 0.00 0.00 0.00 0.00 0.00 0.00 0.00 0.01 0.00 0.00 0.01 0.04 0.08 0.02 0.00 0.00 0.00 0.00 0.00 0.00 0.00 0.00 0.00 0.00 0.00 0.00 0.00 0.00 0.00 0.00 0.00 0.00 0.00 0.00 0.00 0.00 0.00 0.00 0.00 0.00 0.00 0.00 0.00
0.00 0.00 0.00 0.00 0.00 0.00 0.00 0.00 0.00 0.00 0.02 0.05 0.03 0.05 0.02 0.00 0.00 0.00 0.00 0.00 0.00 0.00 0.00 0.00 0.00 0.00 0.00 0.00 0.00 0.00 0.00 0.00 0.00 0.00 0.00 0.00 0.00 0.00 0.00 0.00 0.00 0.00 0.00 0.00
MSLP
1006.50 1005.95 1005.57 1005.25 1005.01 1005.01 1005.38 1005.55 1006.12 1005.33 1005.38 1004.13 1003.59 1002.10 1000.42 998.71 998.59 999.15 999.32 998.70 998.22 998.84 999.96 1000.60 1001.46 1001.79 1002.39 1003.03 1003.57 1004.23 1005.27 1005.93 1006.41 1006.71 1007.05 1007.53 1007.91 1008.21 1008.62 1009.05 1009.40 1009.75 1010.21 1010.51
1007.22 1006.47 1005.92 1004.99 1004.43 1004.36 1004.63 1004.93 1004.88 1004.90 1004.63 1003.99 1003.49 1001.70 1000.67 1000.12 998.55 998.53 998.49 997.72 998.25 998.85 999.28 1000.02 1000.86 1001.13 1001.75 1002.81 1003.38 1003.92 1004.93 1005.57 1006.02 1006.44 1006.91 1007.35 1007.76 1007.97 1008.39 1008.74 1009.00 1009.35 1009.80 1010.10
1008.01 1007.02 1005.88 1004.99 1003.90 1004.08 1004.68 1004.86 1004.99 1004.95 1004.96 1003.93 1003.10 1002.38 1001.46 1000.10 999.32 999.33 997.72 997.33 997.64 998.05 998.78 999.29 1000.05 1000.80 1001.38 1001.94 1003.08 1003.90 1004.57 1005.22 1005.73 1006.11 1006.58 1007.04 1007.41 1007.85 1008.19 1008.44 1008.83 1009.16 1009.39 1009.72
1008.97 1007.81 1006.69 1005.05 1004.17 1004.05 1004.63 1005.19 1005.38 1005.22 1004.87 1004.27 1003.47 1002.23 1001.26 999.80 999.31 998.89 998.00 997.38 996.98 996.98 997.94 998.99 1000.05 1000.69 1001.46 1001.92 1002.68 1003.66 1004.28 1004.79 1005.31 1005.75 1006.14 1006.60 1007.06 1007.45 1007.84 1008.16 1008.35 1008.53 1008.67 1008.86
1009.70 1008.83 1007.02 1005.36 1004.69 1004.53 1004.85 1005.34 1005.41 1005.22 1004.66 1004.18 1003.14 1001.76 1000.12 999.77 999.36 998.84 999.09 996.75 996.52 996.21 996.61 998.11 999.86 1000.37 1001.19 1002.12 1002.77 1003.62 1004.27 1004.63 1005.06 1005.40 1005.88 1006.31 1006.75 1007.12 1007.47 1007.77 1008.03 1008.16 1008.30 1008.53
1010.23 1009.20 1007.76 1005.99 1005.00 1004.75 1005.01 1004.98 1004.64 1005.35 1005.30 1004.79 1003.91 1002.83 1000.84 999.90 999.98 999.75 998.26 998.38 996.63 996.77 997.51 998.20 999.63 1000.19 1000.96 1001.99 1002.52 1003.15 1003.77 1004.04 1004.49 1004.99 1005.43 1005.83 1006.19 1006.67 1006.98 1007.28 1007.50 1007.71 1007.96 1008.09
1009.74 1008.83 1007.22 1005.55 1005.15 1004.97 1005.51 1005.40 1004.98 1005.24 1005.27 1005.05 1004.75 1003.68 1001.78 1000.79 999.21 999.10 999.02 998.44 997.81 998.02 998.42 998.12 999.35 999.73 1000.97 1001.66 1002.02 1002.29 1002.90 1003.49 1004.08 1004.58 1004.95 1005.23 1005.73 1006.26 1006.70 1007.09 1007.40 1007.59 1007.64 1007.76
1009.51 1008.60 1007.01 1005.42 1005.31 1005.27 1004.85 1004.50 1004.71 1004.68 1004.83 1004.70 1004.23 1003.46 1002.39 1001.42 999.93 998.97 998.74 998.66 998.20 998.09 998.57 998.94 999.17 999.66 1000.66 1001.59 1001.84 1002.14 1002.85 1003.47 1003.89 1004.34 1004.85 1005.26 1005.69 1006.03 1006.42 1006.91 1007.27 1007.43 1007.53 1007.58
1008.34 1007.12 1005.55 1005.23 1004.90 1004.36 1004.43 1004.51 1004.41 1004.27 1004.31 1004.19 1003.87 1003.32 1002.91 1001.80 1001.24 1000.53 1000.04 1000.04 1000.74 999.32 999.11 999.17 999.67 999.87 1000.62 1001.52 1001.72 1002.05 1002.72 1003.35 1003.89 1004.37 1004.77 1005.16 1005.66 1005.99 1006.34 1006.50 1006.85 1007.23 1007.52 1007.80
1007.63 1005.96 1005.38 1004.85 1004.62 1004.46 1004.10 1004.04 1004.28 1003.93 1003.98 1004.10 1003.46 1002.99 1002.96 1001.95 1001.91 1002.16 1001.45 1001.35 1001.43 1001.71 1000.15 999.66 999.82 1000.13 1000.76 1001.30 1001.44 1001.97 1002.69 1003.32 1003.78 1004.27 1004.70 1005.10 1005.46 1005.88 1006.27 1006.67 1006.90 1007.22 1007.73 1007.92
1006.78 1005.85 1005.10 1004.33 1003.77 1003.73 1003.91 1003.78 1003.92 1003.98 1003.66 1003.05 1002.66 1002.31 1002.38 1002.45 1002.34 1002.44 1002.23 1001.42 1001.16 1002.74 1003.78 1001.20 1000.69 1000.97 1001.17 1001.25 1001.33 1002.17 1002.87 1003.59 1004.11 1004.42 1004.84 1005.33 1005.75 1006.09 1006.33 1006.68 1007.04 1007.45 1007.77 1007.83
1005.51 1004.58 1004.65 1004.10 1003.60 1003.78 1003.86 1003.51 1003.53 1003.57 1003.28 1002.81 1002.67 1002.33 1002.01 1002.68 1002.69 1002.04 1001.73 1000.63 1000.58 1002.99 1005.05 1005.19 1002.65 1002.08 1002.34 1002.10 1001.97 1002.43 1003.28 1003.96 1004.39 1004.65 1005.15 1005.62 1006.11 1006.64 1007.01 1007.10 1007.21 1007.33 1007.64 1007.82
1004.27 1003.67 1003.64 1003.47 1003.52 1003.54 1003.42 1003.22 1003.18 1003.06 1002.77 1002.56 1002.21 1002.18 1002.10 1002.42 1002.59 1001.94 1001.26 1000.66 1001.14 1005.76 1006.28 1006.27 1005.46 1003.06 1002.91 1002.79 1002.60 1002.89 1003.38 1003.93 1004.42 1004.91 1005.41 1005.94 1006.30 1006.61 1007.09 1007.67 1007.85 1007.91 1007.86 1007.91
1003.55 1003.67 1003.32 1002.66 1003.10 1003.05 1003.00 1002.83 1002.48 1002.33 1002.25 1002.44 1002.34 1002.33 1002.15 1002.88 1002.41 1002.05 1002.03 1001.78 1002.39 1004.59 1006.51 1006.40 1005.52 1004.69 1004.06 1003.97 1004.12 1004.30 1004.57 1004.85 1004.92 1005.12 1005.65 1006.19 1006.36 1006.69 1006.93 1007.27 1007.73 1008.22 1008.27 1008.13
1002.59 1002.61 1002.42 1002.41 1002.48 1002.47 1002.50 1002.27 1001.76 1001.42 1001.65 1001.69 1001.67 1001.75 1002.03 1002.06 1002.02 1002.10 1001.76 1002.29 1004.15 1005.52 1006.39 1005.76 1005.39 1005.93 1005.20 1004.81 1004.69 1005.01 1005.20 1005.25 1005.33 1005.60 1005.87 1006.47 1006.97 1007.00 1006.92 1007.14 1007.46 1008.03 1008.36 1008.45
1001.64 1001.93 1002.12 1002.09 1001.92 1002.20 1002.01 1001.81 1001.51 1001.31 1001.58 1001.70 1001.65 1001.41 1001.29 1001.10 1001.50 1002.27 1001.99 1002.42 1004.09 1005.69 1005.43 1005.56 1006.00 1006.12 1005.64 1005.07 1005.08 1005.12 1005.26 1005.46 1005.71 1005.71 1006.35 1006.51 1006.83 1007.09 1007.24 1007.39 1007.72 1008.08 1008.34 1008.65
1001.76 1001.76 1001.69 1001.56 1001.76 1001.78 1001.66 1001.23 1001.16 1001.49 1001.53 1000.80 1001.01 1002.26 1002.32 1002.19 1001.95 1002.14 1003.10 1002.83 1004.70 1004.81 1005.36 1005.68 1005.80 1005.95 1005.45 1005.35 1005.32 1005.59 1005.24 1005.99 1005.95 1006.33 1006.00 1006.52 1006.77 1007.00 1007.31 1007.35 1007.58 1008.16 1008.56 1008.86
1002.01 1001.65 1001.37 1001.55 1001.60 1001.09 1001.05 1000.91 1001.00 1001.30 1001.20 1000.52 1000.55 1001.11 1001.56 1001.71 1001.62 1002.07 1002.82 1004.00 1004.77 1005.32 1005.56 1005.56 1005.59 1005.62 1005.29 1005.02 1005.35 1005.27 1005.76 1006.19 1005.97 1006.55 1006.65 1007.05 1007.17 1007.17 1007.45 1007.44 1007.47 1008.07 1008.54 1008.97
1002.58 1002.36 1002.05 1001.93 1001.79 1001.66 1001.10 1001.05 1001.15 1001.23 1000.95 1000.90 1001.01 1001.14 1001.26 1001.62 1002.13 1002.87 1003.30 1004.07 1004.64 1005.24 1005.48 1005.36 1005.26 1005.56 1005.16 1004.70 1005.29 1005.48 1005.98 1006.09 1006.09 1006.54 1006.98 1007.67 1007.41 1007.58 1007.77 1007.80 1007.83 1008.02 1008.49 1008.80
1003.02 1003.00 1002.89 1002.41 1001.85 1001.56 1001.44 1001.08 1001.04 1001.11 1001.24 1001.52 1001.49 1001.67 1002.19 1002.52 1003.06 1003.42 1003.98 1004.33 1004.73 1005.06 1005.50 1005.60 1005.54 1005.44 1004.94 1005.03 1005.25 1005.51 1005.71 1005.98 1006.04 1006.80 1007.54 1007.64 1007.73 1008.16 1008.25 1008.20 1008.30 1008.42 1008.67 1008.81
1003.01 1003.03 1002.90 1002.64 1002.26 1001.64 1001.67 1001.38 1001.30 1001.31 1001.10 1001.50 1001.92 1002.10 1002.25 1002.52 1003.08 1003.37 1003.82 1004.28 1004.70 1004.84 1004.98 1004.97 1004.67 1004.89 1005.13 1005.29 1005.01 1005.39 1005.60 1005.95 1006.56 1007.16 1007.31 1007.66 1008.29 1008.64 1008.74 1008.87 1008.70 1008.78 1008.88 1008.85
1003.69 1003.36 1003.04 1002.53 1002.31 1002.05 1001.62 1001.58 1001.37 1001.20 1001.31 1001.61 1001.75 1002.04 1002.39 1002.96 1003.23 1003.66 1003.73 1003.64 1004.34 1004.26 1004.42 1004.67 1004.44 1004.56 1005.05 1005.27 1004.92 1005.63 1005.99 1006.25 1006.90 1007.45 1007.94 1008.26 1008.73 1008.91 1009.17 1009.34 1009.40 1009.56 1009.55 1009.43
1003.79 1003.56 1003.22 1002.75 1002.28 1001.96 1001.55 1001.10 1000.77 1000.79 1000.92 1001.00 1001.28 1001.71 1002.21 1002.59 1002.86 1003.65 1003.73 1003.87 1003.61 1004.30 1004.66 1005.06 1004.57 1004.55 1004.91 1005.19 1005.68 1006.14 1006.47 1006.83 1007.33 1007.62 1008.37 1009.27 1009.54 1009.73 1009.99 1010.33 1010.49 1010.49 1010.50 1010.40
1003.63 1003.42 1003.12 1002.86 1002.62 1002.27 1001.80 1001.22 1001.05 1001.00 1000.94 1000.92 1001.28 1001.43 1001.90 1002.65 1003.01 1003.11 1003.06 1003.67 1003.92 1004.67 1004.77 1004.99 1005.24 1005.13 1005.33 1005.75 1006.60 1007.02 1006.94 1007.42 1008.00 1008.66 1009.05 1009.59 1009.98 1010.45 1010.73 1011.18 1011.61 1011.65 1011.61 1011.55
1003.08 1003.03 1002.87 1002.71 1002.41 1002.41 1002.18 1001.66 1001.19 1000.99 1001.12 1001.23 1001.29 1001.55 1001.92 1002.49 1002.89 1003.11 1003.05 1003.79 1004.29 1004.67 1005.04 1005.44 1005.74 1005.47 1006.01 1006.59 1007.11 1007.44 1007.96 1008.39 1009.28 1009.76 1010.08 1010.48 1010.84 1011.14 1011.32 1011.62 1012.26 1012.42 1012.38 1012.38
1003.33 1002.81 1002.36 1002.41 1002.75 1002.63 1002.23 1001.82 1001.80 1001.94 1001.79 1001.66 1001.81 1001.92 1001.91 1002.47 1003.09 1003.26 1003.38 1003.83 1004.39 1004.86 1005.58 1005.95 1005.79 1005.91 1006.52 1007.12 1007.90 1008.62 1009.02 1009.26 1009.08 1009.63 1010.13 1010.88 1011.29 1011.58 1012.27 1012.46 1012.58 1012.81 1012.90 1012.90
1002.99 1002.75 1002.49 1002.21 1002.19 1002.40 1002.28 1001.91 1001.91 1002.01 1001.95 1001.93 1002.04 1002.06 1002.21 1002.67 1003.21 1003.70 1003.93 1004.19 1004.72 1005.56 1005.93 1006.10 1006.16 1006.54 1007.41 1008.07 1008.81 1009.72 1009.96 1010.00 1010.21 1010.61 1010.90 1011.50 1011.78 1011.96 1012.57 1012.77 1012.91 1013.11 1013.24 1013.28
Thickness
5744 5749 5753 5751 5756 5759 5755 5753 5747 5759 5750 5779 5785 5804 5826 5850 5855 5849 5848 5861 5865 5870 5864 5862 5856 5860 5858 5854 5852 5847 5836 5830 5825 5823 5821 5816 5812 5810 5806 5801 5798 5795 5791 5788
5730 5740 5741 5746 5760 5761 5759 5759 5760 5761 5768 5784 5792 5807 5820 5825 5849 5849 5854 5872 5865 5866 5865 5861 5859 5862 5861 5852 5849 5846 5835 5830 5827 5824 5820 5816 5812 5810 5807 5803 5800 5796 5791 5788
5708 5719 5729 5730 5751 5753 5746 5752 5755 5746 5760 5778 5788 5797 5806 5823 5833 5834 5857 5864 5863 5859 5864 5864 5861 5861 5859 5857 5847 5841 5835 5830 5827 5825 5821 5817 5813 5808 5805 5802 5798 5793 5790 5786
5689 5709 5689 5731 5749 5751 5735 5735 5739 5749 5757 5768 5780 5799 5809 5822 5829 5833 5847 5857 5865 5869 5869 5862 5857 5857 5854 5853 5848 5838 5833 5829 5826 5824 5821 5817 5814 5809 5804 5800 5797 5793 5792 5789
5674 5671 5695 5725 5733 5729 5724 5722 5733 5738 5753 5764 5779 5796 5816 5822 5826 5832 5832 5859 5867 5880 5879 5866 5853 5854 5850 5843 5840 5833 5828 5826 5824 5823 5819 5815 5811 5807 5803 5799 5795 5792 5790 5785
5660 5668 5667 5702 5725 5733 5727 5701 5736 5732 5736 5745 5757 5756 5787 5812 5815 5819 5838 5840 5864 5870 5868 5862 5851 5852 5844 5836 5834 5829 5827 5827 5825 5822 5818 5814 5811 5805 5800 5797 5793 5790 5786 5783
5659 5663 5678 5712 5718 5723 5687 5702 5726 5728 5729 5733 5734 5753 5787 5800 5816 5822 5825 5835 5848 5850 5849 5857 5848 5849 5837 5833 5830 5833 5830 5827 5823 5819 5816 5814 5810 5805 5799 5792 5788 5785 5783 5780
5654 5656 5662 5713 5710 5697 5707 5720 5719 5722 5725 5727 5737 5751 5770 5785 5804 5819 5825 5829 5840 5844 5841 5843 5845 5843 5833 5826 5829 5829 5824 5819 5817 5815 5810 5807 5803 5799 5795 5789 5783 5780 5778 5774
5667 5671 5702 5704 5705 5710 5709 5709 5711 5714 5715 5716 5728 5742 5754 5770 5782 5797 5806 5809 5805 5824 5830 5833 5834 5835 5826 5822 5824 5824 5818 5813 5810 5808 5804 5800 5796 5792 5788 5786 5781 5775 5769 5765
5675 5696 5696 5702 5699 5700 5705 5704 5705 5707 5709 5713 5725 5738 5744 5761 5762 5767 5779 5785 5792 5792 5812 5821 5824 5824 5822 5820 5820 5816 5810 5805 5803 5799 5797 5794 5790 5786 5780 5776 5773 5769 5762 5757
5669 5684 5692 5698 5702 5701 5697 5698 5696 5696 5701 5713 5724 5734 5739 5741 5746 5753 5760 5773 5785 5770 5761 5796 5808 5808 5811 5813 5814 5806 5801 5795 5791 5790 5786 5782 5778 5775 5773 5769 5766 5760 5755 5752
5674 5689 5687 5694 5698 5694 5688 5690 5690 5689 5692 5703 5709 5718 5728 5725 5729 5742 5754 5773 5779 5757 5743 5740 5781 5792 5793 5799 5802 5798 5791 5785 5781 5779 5774 5770 5766 5762 5755 5755 5753 5750 5746 5745
5683 5696 5692 5695 5692 5692 5687 5687 5688 5688 5691 5693 5701 5704 5713 5719 5719 5727 5746 5758 5759 5717 5725 5726 5744 5777 5781 5785 5787 5784 5780 5776 5773 5768 5763 5758 5755 5753 5749 5742 5737 5736 5736 5733
5685 5688 5689 5696 5688 5691 5690 5688 5688 5687 5687 5680 5678 5685 5696 5700 5707 5713 5721 5731 5738 5724 5709 5710 5729 5746 5760 5763 5762 5761 5759 5756 5757 5755 5750 5745 5745 5741 5738 5736 5732 5728 5721 5721
5688 5690 5693 5693 5691 5693 5691 5690 5691 5693 5686 5682 5677 5679 5684 5693 5702 5706 5715 5717 5711 5700 5699 5711 5722 5725 5740 5746 5748 5745 5744 5745 5745 5742 5738 5731 5725 5725 5725 5723 5721 5715 5712 5708
5689 5689 5687 5686 5688 5688 5687 5689 5691 5690 5680 5682 5679 5679 5682 5693 5699 5701 5712 5713 5702 5690 5699 5711 5713 5717 5727 5733 5734 5734 5734 5732 5730 5729 5722 5720 5716 5713 5709 5706 5704 5701 5699 5696
5679 5682 5685 5686 5684 5687 5690 5696 5694 5686 5678 5688 5687 5676 5677 5681 5689 5692 5695 5708 5693 5699 5702 5705 5709 5711 5718 5720 5721 5719 5724 5718 5717 5712 5715 5710 5705 5702 5698 5696 5693 5687 5684 5681
5671 5677 5681 5682 5682 5688 5689 5693 5693 5688 5688 5693 5695 5689 5688 5691 5697 5699 5695 5690 5691 5692 5696 5701 5704 5706 5711 5714 5711 5713 5709 5704 5705 5698 5698 5694 5691 5690 5685 5684 5684 5678 5674 5669
5659 5665 5670 5675 5678 5679 5686 5687 5687 5688 5691 5695 5695 5694 5696 5695 5695 5692 5693 5688 5685 5686 5690 5695 5698 5697 5703 5708 5702 5701 5698 5696 5695 5691 5686 5676 5679 5676 5672 5671 5672 5671 5667 5664
5650 5652 5657 5665 5673 5677 5679 5685 5687 5687 5688 5688 5689 5687 5684 5682 5681 5679 5677 5676 5677 5679 5680 5683 5686 5689 5696 5695 5693 5691 5690 5687 5686 5680 5673 5671 5669 5664 5661 5659 5659 5658 5656 5655
5645 5648 5652 5656 5661 5670 5674 5680 5682 5683 5688 5686 5682 5682 5683 5682 5680 5678 5676 5674 5677 5680 5682 5685 5690 5688 5685 5685 5687 5686 5685 5681 5675 5668 5668 5665 5658 5652 5651 5649 5650 5649 5647 5647
5635 5640 5645 5653 5657 5659 5668 5672 5677 5681 5682 5682 5684 5683 5681 5676 5677 5676 5677 5679 5676 5684 5685 5682 5683 5682 5678 5676 5681 5677 5672 5669 5664 5657 5652 5649 5644 5642 5638 5637 5637 5632 5630 5630
5628 5632 5637 5643 5650 5654 5662 5668 5675 5679 5680 5684 5684 5682 5679 5678 5679 5672 5673 5675 5682 5677 5673 5668 5674 5674 5671 5670 5667 5665 5664 5661 5653 5649 5642 5632 5629 5628 5624 5620 5617 5615 5614 5613
5625 5627 5633 5638 5641 5646 5653 5662 5666 5669 5674 5680 5679 5681 5679 5673 5673 5673 5677 5674 5674 5668 5667 5663 5661 5662 5662 5661 5653 5650 5650 5644 5639 5632 5627 5622 5619 5612 5609 5603 5597 5596 5595 5593
5626 5628 5631 5634 5640 5641 5648 5656 5662 5667 5669 5672 5675 5675 5674 5671 5668 5670 5675 5667 5663 5663 5660 5656 5655 5657 5652 5646 5642 5637 5630 5625 5616 5612 5610 5607 5602 5597 5593 5589 5582 5580 5578 5575
5618 5625 5631 5634 5632 5634 5644 5649 5649 5651 5657 5662 5664 5663 5665 5665 5661 5663 5663 5662 5658 5654 5649 5644 5647 5646 5640 5634 5626 5618 5613 5609 5611 5606 5601 5594 5589 5584 5578 5575 5571 5567 5563 5559
5616 5616 5625 5630 5632 5632 5636 5642 5645 5647 5649 5651 5653 5656 5658 5655 5651 5650 5649 5650 5647 5641 5636 5635 5634 5628 5622 5617 5609 5600 5596 5595 5592 5591 5587 5579 5575 5571 5564 5560 5556 5551 5546 5542